Location: Emblem
(62.4273°N, 6.4710°E)
Time: 07:02:44
(UTC+02:00)

Transit 2A - Pass Details

Date: 07 March 2024
Orbit: 596 x 956 km, 66.7° (Epoch: 24 April)

Event Time Altitude Azimuth Distance (km) Brightness Sun altitude
Rises 19:32:55 0° 236° (SW) 2,840 9.8 -9.8°
Reaches altitude 10° 19:35:07 10° 236° (WSW) 1,950 8.9 -10.1°
Maximum altitude 19:39:28 90° 154° (SSE) 630 5.6 -10.6°
Drops below altitude 10° 19:44:07 10° 58° (ENE) 2,073 7.8 -11.1°
Enters shadow 19:44:43 - 59° (ENE) 2,314 8.1 -11.2°
